Location: Atherton
(17.2661°S, 145.4859°E)
Time: 23:54:21
(UTC+10:00)

Vanguard 1 - Pass Details

Date: 25 June 2025
Orbit: 649 x 3822 km, 34.2° (Epoch: 17 July)

Event Time Altitude Azimuth Distance (km) Brightness Sun altitude
Rises 13:41:07 0° 342° (NNW) 7,520 15.3 44.9°
Reaches altitude 10° 13:49:05 10° 358° (N) 6,802 15.2 44.0°
Maximum altitude 14:03:16 19° 36° (NE) 6,065 14.5 42.3°
Drops below altitude 10° 14:16:16 10° 74° (ENE) 6,346 14.1 40.5°
Sets 14:22:54 0° 90° (E) 6,905 14.1 39.6°
